Tracking 28096 objects as of 28-Sep-2023
HD Live streaming from Space Station
objects crossing your sky now

BNU-1

Track BNU-1 now!
10-day predictions


NORAD ID: 44529
Int'l Code: 2019-059B
Perigee: 735.6 km
Apogee: 756.2 km
Inclination: 98.5 °
Period: 99.6 minutes
Semi major axis: 7116 km
RCS: Unknown
Launch date: September 12, 2019
Source: People's Republic of China (PRC)
Launch site: Taiyaun Space Center, China (TSC)
Your satellite tracking list
Your tracking list is empty




NASA's NSSDC Master Catalog

Two Line Element Set (TLE):
1 44529U 19059B   23270.76973986  .00001056  00000-0  30875-3 0  9995
2 44529  98.5275  12.8038 0014436 135.0955 225.1407 14.46000805213296
Source of the keplerian elements: AFSPC